TimeEST,TemperatureF,Dew PointF,Humidity,Sea Level PressureIn,VisibilityMPH,Wind Direction,Wind SpeedMPH,Gust SpeedMPH,PrecipitationIn,Events,Conditions,WindDirDegrees,DateUTC
12:05 AM,37.4,-9999,N/A,30.05,4.0,NE,13.8,17.3,0.00,,Overcast,50,2012-12-09 05:05:00
12:25 AM,37.4,-9999,N/A,30.05,5.0,NE,15.0,20.7,0.00,,Overcast,50,2012-12-09 05:25:00
12:45 AM,37.4,-9999,N/A,30.05,5.0,ENE,13.8,19.6,0.00,,Overcast,60,2012-12-09 05:45:00
1:05 AM,37.4,-9999,N/A,30.04,3.0,ENE,12.7,21.9,0.00,,Overcast,60,2012-12-09 06:05:00
1:25 AM,37.4,-9999,N/A,30.05,3.0,ENE,11.5,-,0.00,,Overcast,60,2012-12-09 06:25:00
1:45 AM,37.4,-9999,N/A,30.05,5.0,East,10.4,-,0.00,,Overcast,80,2012-12-09 06:45:00
2:05 AM,37.4,-9999,N/A,30.05,6.0,ENE,8.1,-,0.00,,Overcast,70,2012-12-09 07:05:00
2:25 AM,37.4,37.4,100,30.06,9.0,ENE,9.2,-,0.00,,Overcast,70,2012-12-09 07:25:00
2:45 AM,37.4,37.4,100,30.06,10.0,ENE,8.1,-,0.00,,Overcast,70,2012-12-09 07:45:00
3:05 AM,37.4,37.4,100,30.06,10.0,ENE,10.4,-,0.00,,Overcast,70,2012-12-09 08:05:00
3:25 AM,37.4,37.4,100,30.06,10.0,East,8.1,-,0.00,,Overcast,80,2012-12-09 08:25:00
3:45 AM,37.4,37.4,100,30.05,10.0,ENE,10.4,-,0.00,,Overcast,70,2012-12-09 08:45:00
4:05 AM,37.4,37.4,100,30.04,10.0,ENE,13.8,-,0.00,,Overcast,60,2012-12-09 09:05:00
4:25 AM,37.4,37.4,100,30.04,10.0,ENE,9.2,-,0.00,,Overcast,60,2012-12-09 09:25:00
4:45 AM,37.4,37.4,100,30.04,10.0,East,11.5,-,0.00,,Overcast,80,2012-12-09 09:45:00
5:05 AM,37.4,37.4,100,30.03,10.0,ENE,11.5,18.4,0.00,,Overcast,70,2012-12-09 10:05:00
5:25 AM,37.4,37.4,100,30.04,10.0,ENE,9.2,-,0.00,,Overcast,70,2012-12-09 10:25:00
5:45 AM,37.4,37.4,100,30.04,10.0,East,8.1,-,0.00,,Overcast,80,2012-12-09 10:45:00
6:05 AM,37.4,37.4,100,30.03,10.0,ENE,11.5,-,0.00,,Overcast,70,2012-12-09 11:05:00
6:25 AM,37.4,37.4,100,30.01,10.0,East,10.4,-,0.00,,Overcast,80,2012-12-09 11:25:00
6:45 AM,37.4,37.4,100,29.99,10.0,ENE,16.1,20.7,0.00,,Overcast,70,2012-12-09 11:45:00
7:05 AM,37.4,37.4,100,30.00,10.0,East,8.1,17.3,0.00,,Overcast,100,2012-12-09 12:05:00
7:25 AM,37.4,37.4,100,30.01,10.0,East,5.8,-,0.00,,Overcast,80,2012-12-09 12:25:00
7:45 AM,37.4,37.4,100,30.02,10.0,East,5.8,-,0.00,,Overcast,80,2012-12-09 12:45:00
8:05 AM,37.4,37.4,100,30.01,10.0,East,8.1,-,0.00,,Overcast,90,2012-12-09 13:05:00
8:25 AM,37.4,37.4,100,29.99,10.0,East,11.5,17.3,0.00,,Overcast,90,2012-12-09 13:25:00
8:45 AM,37.4,37.4,100,29.98,10.0,East,9.2,-,0.00,,Overcast,100,2012-12-09 13:45:00
9:05 AM,37.4,37.4,100,29.97,10.0,East,8.1,-,0.00,,Overcast,100,2012-12-09 14:05:00
9:25 AM,37.4,37.4,100,29.97,10.0,ESE,10.4,16.1,0.00,,Overcast,110,2012-12-09 14:25:00
9:45 AM,39.2,37.4,93,29.96,10.0,ESE,9.2,-,0.00,,Overcast,120,2012-12-09 14:45:00
10:05 AM,39.2,39.2,100,29.95,10.0,ESE,11.5,17.3,0.00,,Overcast,110,2012-12-09 15:05:00
10:25 AM,39.2,39.2,100,29.94,10.0,ESE,13.8,19.6,0.00,,Overcast,110,2012-12-09 15:25:00
10:45 AM,39.2,39.2,100,29.94,10.0,SE,11.5,16.1,0.00,,Overcast,130,2012-12-09 15:45:00
11:05 AM,41.0,41.0,100,29.94,9.0,SE,13.8,-,0.00,,Overcast,130,2012-12-09 16:05:00
11:25 AM,41.0,41.0,100,29.93,10.0,SE,13.8,18.4,0.00,,Overcast,130,2012-12-09 16:25:00
11:45 AM,41.0,41.0,100,29.90,9.0,SE,15.0,19.6,0.00,,Overcast,130,2012-12-09 16:45:00
12:05 PM,42.8,42.8,100,29.89,7.0,SE,13.8,20.7,0.00,,Overcast,140,2012-12-09 17:05:00
12:25 PM,42.8,42.8,100,29.87,7.0,SE,12.7,-,0.00,,Overcast,130,2012-12-09 17:25:00
12:45 PM,42.8,42.8,100,29.85,5.0,SE,12.7,-,0.00,,Overcast,130,2012-12-09 17:45:00
1:05 PM,44.6,44.6,100,29.84,6.0,SE,15.0,-,0.00,,Overcast,140,2012-12-09 18:05:00
1:25 PM,42.8,42.8,100,29.83,5.0,SE,16.1,19.6,0.00,,Overcast,140,2012-12-09 18:25:00
1:45 PM,44.6,44.6,100,29.82,5.0,SE,18.4,23.0,0.00,,Overcast,140,2012-12-09 18:45:00
2:05 PM,44.6,44.6,100,29.81,4.0,SE,15.0,-,0.00,,Overcast,140,2012-12-09 19:05:00
2:25 PM,44.6,44.6,100,29.80,4.0,SE,15.0,-,0.00,,Overcast,140,2012-12-09 19:25:00
2:45 PM,44.6,-9999,N/A,29.80,4.0,SSE,15.0,-,0.00,,Overcast,150,2012-12-09 19:45:00
3:05 PM,44.6,-9999,N/A,29.78,4.0,SSE,13.8,-,0.00,,Overcast,150,2012-12-09 20:05:00
3:25 PM,46.4,-9999,N/A,29.78,4.0,SSE,16.1,23.0,0.00,,Overcast,150,2012-12-09 20:25:00
3:45 PM,46.4,-9999,N/A,29.78,3.0,SSE,15.0,18.4,0.00,,Overcast,150,2012-12-09 20:45:00
4:05 PM,46.4,-9999,N/A,29.78,2.5,SSE,12.7,19.6,0.00,,Overcast,160,2012-12-09 21:05:00
4:25 PM,48.2,-9999,N/A,29.77,3.0,SSE,12.7,19.6,0.00,,Overcast,160,2012-12-09 21:25:00
4:45 PM,48.2,-9999,N/A,29.77,2.5,SSE,13.8,-,0.00,,Overcast,150,2012-12-09 21:45:00
5:05 PM,48.2,-9999,N/A,29.77,1.2,SSE,11.5,-,0.00,,Overcast,150,2012-12-09 22:05:00
5:25 PM,48.2,-9999,N/A,29.77,2.5,SSE,11.5,-,0.00,,Overcast,160,2012-12-09 22:25:00
5:45 PM,50.0,-9999,N/A,29.76,3.0,SSE,9.2,-,0.00,,Overcast,160,2012-12-09 22:45:00
6:05 PM,50.0,-9999,N/A,29.76,3.0,SSE,11.5,-,0.00,,Overcast,160,2012-12-09 23:05:00
6:25 PM,51.8,-9999,N/A,29.75,2.5,SSE,12.7,-,0.05,,Overcast,160,2012-12-09 23:25:00
6:45 PM,51.8,-9999,N/A,29.74,2.5,SSE,9.2,-,0.14,,Overcast,160,2012-12-09 23:45:00
7:05 PM,51.8,-9999,N/A,29.74,5.0,South,8.1,-,0.01,,Overcast,170,2012-12-10 00:05:00
7:25 PM,51.8,-9999,N/A,29.74,4.0,South,6.9,18.4,0.03,,Overcast,170,2012-12-10 00:25:00
7:45 PM,53.6,-9999,N/A,29.72,5.0,South,11.5,-,0.05,,Mostly Cloudy,170,2012-12-10 00:45:00
8:05 PM,53.6,-9999,N/A,29.72,4.0,South,13.8,-,0.00,,Mostly Cloudy,170,2012-12-10 01:05:00
8:25 PM,53.6,-9999,N/A,29.70,5.0,South,8.1,-,0.01,,Mostly Cloudy,180,2012-12-10 01:25:00
8:45 PM,53.6,-9999,N/A,29.70,5.0,South,12.7,18.4,0.01,,Mostly Cloudy,170,2012-12-10 01:45:00
9:05 PM,55.4,-9999,N/A,29.68,5.0,SSE,13.8,-,0.00,,Mostly Cloudy,160,2012-12-10 02:05:00
9:25 PM,55.4,-9999,N/A,29.67,6.0,South,10.4,-,0.01,,Scattered Clouds,170,2012-12-10 02:25:00
9:45 PM,55.4,-9999,N/A,29.66,3.0,SSE,12.7,-,0.07,,Mostly Cloudy,160,2012-12-10 02:45:00
10:05 PM,53.6,-9999,N/A,29.65,4.0,SSE,11.5,-,0.02,,Overcast,160,2012-12-10 03:05:00
10:25 PM,53.6,-9999,N/A,29.63,5.0,South,17.3,-,0.05,,Overcast,170,2012-12-10 03:25:00
10:45 PM,55.4,-9999,N/A,29.63,5.0,South,18.4,-,0.08,,Overcast,170,2012-12-10 03:45:00
11:05 PM,55.4,-9999,N/A,29.64,6.0,South,16.1,21.9,0.01,,Overcast,190,2012-12-10 04:05:00
11:25 PM,55.4,-9999,N/A,29.64,6.0,South,15.0,20.7,0.03,,Overcast,190,2012-12-10 04:25:00
11:45 PM,53.6,-9999,N/A,29.64,7.0,SSW,13.8,-,0.04,,Overcast,210,2012-12-10 04:45:00